RH
29 30 30 22 19 21 31 31 32 32 21 19 19 19 17 16 18 22 25 28 27 26 23 30 42 76 96 98 97 96 97 97 98 98 98 99 98 98 98 98 97 95 93 91
32 48 33 18 17 21 25 28 26 21 17 19 20 19 18 18 21 21 21 28 30 30 24 23 48 93 98 97 95 96 94 97 96 95 92 97 96 97 97 98 96 94 98 95
24 26 29 30 26 23 25 25 27 22 22 22 26 32 29 26 26 27 29 32 34 29 26 25 39 94 97 98 96 94 95 95 97 91 89 99 98 99 100 99 98 97 97 95
26 21 20 40 40 31 38 30 28 31 34 48 34 46 29 28 29 27 24 26 26 27 32 28 41 93 97 96 96 95 96 94 98 98 90 95 92 96 98 97 96 95 97 96
29 37 32 24 30 38 48 36 34 35 42 49 45 46 35 24 24 24 26 27 35 55 52 49 44 86 94 97 98 97 92 94 97 98 96 92 96 95 96 98 98 97 95 94
26 28 34 35 32 31 32 36 37 48 49 60 39 40 27 30 29 32 34 52 61 63 59 54 47 72 96 98 98 94 92 95 97 97 97 97 97 98 98 97 98 98 98 97
36 32 31 27 32 31 32 38 46 39 65 49 37 45 28 29 29 60 68 67 71 69 62 59 56 72 96 96 95 92 91 97 97 97 96 97 96 93 96 96 95 98 97 98
52 49 37 31 31 34 37 38 52 43 46 38 44 53 42 36 54 64 67 73 72 72 63 62 59 58 92 89 92 90 90 95 96 94 95 94 95 97 97 95 95 95 94 95
59 49 31 26 34 37 42 44 38 45 49 58 45 42 32 46 59 63 63 72 81 72 68 61 59 55 94 91 88 91 88 86 94 94 91 92 92 92 94 96 96 96 92 93
45 59 33 28 40 29 44 50 48 59 61 53 49 58 50 70 74 71 73 76 72 59 66 61 57 56 57 92 86 93 87 83 91 92 89 90 92 93 94 96 96 97 94 93
36 42 42 36 35 37 48 63 71 66 73 76 81 51 65 61 78 79 78 74 78 68 80 70 60 58 58 89 90 94 95 85 85 86 88 94 94 95 95 96 96 97 98 97
41 47 46 34 38 41 68 78 80 83 94 85 89 82 48 46 52 52 80 76 78 76 72 74 73 68 90 93 92 94 94 91 89 92 89 94 95 95 96 97 96 98 99 97
50 53 45 44 50 42 53 41 62 80 89 87 93 70 43 35 32 35 76 75 82 80 71 70 75 76 95 93 90 92 93 90 88 97 89 96 96 96 96 96 96 97 97 98
56 56 47 44 44 44 37 40 40 76 94 71 71 51 30 34 35 30 35 72 82 80 73 78 81 79 80 94 93 89 92 88 91 95 89 95 96 95 95 94 96 96 95 96
62 57 50 50 47 48 47 48 48 49 54 67 36 35 26 28 24 27 26 67 69 70 72 79 85 84 80 82 94 93 91 91 90 95 88 89 96 96 97 97 97 96 95 94
64 67 68 61 55 54 58 58 57 55 49 48 43 43 28 26 24 25 42 62 69 71 70 76 87 80 82 81 83 94 93 93 93 95 90 86 96 98 98 98 98 97 96 96
73 70 75 58 60 58 57 45 48 50 49 48 53 41 33 33 35 75 80 81 82 81 79 84 88 85 87 85 87 86 91 91 95 94 87 88 94 95 98 98 98 98 99 97
78 84 82 82 70 75 36 42 39 46 42 42 39 37 50 47 85 91 88 88 86 83 82 82 86 85 84 87 88 91 86 90 92 94 88 91 93 93 96 98 98 98 98 98
77 78 92 89 84 50 42 32 50 82 74 64 64 64 58 76 90 93 88 84 85 83 81 80 82 83 84 86 88 93 92 92 91 92 94 95 94 97 98 98 98 98 98 98
85 77 78 90 89 82 45 51 69 78 76 82 94 94 89 84 94 91 89 80 81 80 81 82 82 82 83 84 89 96 97 98 98 95 92 93 97 98 98 98 98 98 96 97
96 97 94 91 95 69 50 42 57 83 80 93 84 88 88 88 91 86 80 84 82 84 86 82 80 84 86 86 93 97 97 98 99 99 99 99 98 98 97 97 96 97 97 97
98 98 97 96 96 86 83 84 89 94 88 85 86 82 80 95 85 87 85 86 89 90 85 83 85 87 84 85 92 96 97 97 95 95 96 97 97 95 95 96 97 96 96 97
98 98 96 90 78 89 92 89 89 84 91 85 68 66 92 94 83 89 86 87 86 86 87 81 86 90 87 85 88 96 96 91 93 95 97 96 95 96 95 96 97 96 94 95
97 100 99 99 91 94 91 86 81 90 93 82 97 93 92 91 88 90 84 86 89 88 91 84 88 93 95 87 86 90 90 88 86 92 94 94 97 96 97 96 95 95 96 95
98 100 96 99 100 92 81 82 82 86 84 88 83 89 90 91 87 86 89 90 90 91 91 88 91 92 93 88 87 86 87 86 90 89 87 91 88 87 91 90 89 89 89 86
84 98 99 98 98 99 97 91 82 86 87 83 83 89 81 81 85 84 90 91 92 93 90 89 89 89 89 88 88 83 85 88 88 91 91 91 89 89 89 91 96 93 93 92
Wind_Speed
5 4 8 10 12 9 1 4 5 1 3 5 14 19 10 8 6 9 10 8 10 14 14 9 10 6 6 8 12 15 16 12 10 7 8 6 7 6 6 6 7 12 11 17
1 11 8 9 8 6 5 5 13 4 7 6 8 19 11 9 7 9 8 9 10 12 18 16 10 7 8 11 12 14 15 14 11 8 7 3 4 4 4 4 7 9 6 13
13 7 5 9 5 8 6 8 4 9 2 6 5 12 4 5 3 5 7 7 9 13 16 19 9 7 7 10 12 13 12 15 12 12 8 4 3 3 3 4 7 8 9 10
12 7 13 6 10 11 15 10 11 10 4 4 3 13 5 5 2 3 9 9 10 10 13 13 10 6 9 7 7 8 11 13 10 11 11 11 9 6 3 5 6 8 10 12
10 6 9 14 15 11 7 7 8 5 5 2 4 3 4 7 9 6 7 8 8 8 10 14 16 10 7 8 9 9 13 12 10 10 10 11 7 4 4 4 7 9 11 12
5 3 6 9 6 16 3 4 3 3 3 4 9 7 14 2 4 3 4 7 6 8 11 13 15 8 5 7 10 13 15 12 11 9 8 10 8 7 7 7 7 6 8 10
3 9 4 4 3 3 4 5 1 2 1 5 6 5 14 7 6 2 3 6 7 6 9 14 16 12 6 10 13 13 17 14 13 11 9 8 8 8 9 8 8 8 7 6
4 3 7 5 9 8 7 9 6 6 5 3 1 6 6 3 3 3 1 5 6 11 11 14 17 18 7 11 13 15 17 14 14 13 9 7 7 5 5 5 4 5 7 8
5 3 3 5 3 2 4 5 3 3 1 2 5 6 5 5 9 9 10 9 9 11 10 12 16 16 6 7 13 14 16 14 14 11 9 8 8 7 6 6 5 5 7 6
6 5 4 2 3 6 2 2 3 2 4 5 3 2 2 9 8 8 10 9 9 12 12 13 14 17 15 7 9 9 13 13 10 11 10 8 7 5 5 5 6 7 8 9
4 4 6 0 4 0 1 2 4 4 2 1 2 4 4 5 5 9 9 7 9 13 10 13 17 19 20 7 9 9 10 11 11 9 9 8 7 6 5 3 3 4 5 8
4 3 3 3 8 3 4 3 3 4 3 2 1 6 5 4 4 8 11 10 9 9 11 16 20 22 7 7 9 9 10 10 9 4 8 8 8 8 7 5 4 4 3 5
5 4 4 1 2 5 6 4 5 4 3 4 4 6 4 15 15 9 11 9 6 9 13 21 21 22 4 5 9 10 10 10 10 7 9 9 8 8 7 6 6 5 4 4
2 4 5 4 3 0 2 1 3 5 3 2 6 12 20 10 13 15 13 7 4 5 12 18 18 16 14 6 7 10 10 10 10 10 10 9 9 9 8 6 6 6 7 6
1 6 3 4 4 3 3 4 6 7 6 6 14 9 19 12 17 16 16 2 2 6 11 12 16 14 17 14 6 8 8 10 11 11 10 8 7 8 8 7 6 6 7 7
1 3 1 7 3 5 5 7 10 9 10 8 16 21 20 19 17 16 12 5 3 6 5 7 12 12 12 14 13 6 8 9 10 11 10 9 8 8 8 7 7 6 6 7
2 3 2 6 2 4 7 16 13 8 9 10 12 19 7 14 15 6 2 3 5 6 7 8 8 12 12 13 13 12 4 10 10 11 11 10 9 9 9 8 8 5 6 8
3 2 2 3 2 7 6 2 3 9 13 10 15 15 12 13 3 2 4 3 5 7 7 10 10 12 12 14 12 9 9 10 11 11 11 11 11 9 9 8 9 9 7 9
14 6 3 3 5 9 10 10 5 4 6 10 15 16 10 6 5 3 3 4 5 6 8 9 9 12 13 14 18 13 9 10 12 13 13 13 13 11 10 11 10 9 10 9
5 7 4 3 4 6 6 1 2 3 7 9 15 3 1 2 5 1 2 5 6 5 7 8 10 9 11 12 13 10 4 8 9 10 11 11 12 13 13 13 13 8 10 12
3 4 14 11 4 7 6 8 2 3 5 4 10 6 2 2 3 4 2 5 5 6 7 7 7 6 10 12 11 8 9 9 5 7 9 8 8 11 12 12 12 12 13 14
3 3 2 2 2 7 4 4 3 0 8 7 10 7 3 2 4 6 6 7 8 10 9 8 7 8 11 12 9 10 12 9 6 10 13 12 9 8 11 14 13 13 14 16
4 1 4 4 4 3 6 5 7 1 4 5 5 5 0 4 4 6 7 9 10 11 9 8 8 10 11 11 11 9 10 9 8 13 14 11 13 11 15 14 13 12 13 13
4 6 2 2 2 8 11 6 4 6 11 8 4 6 6 6 8 7 8 8 9 9 10 9 10 10 10 10 11 11 11 9 13 13 14 12 12 14 14 10 9 10 10 11
4 6 8 4 5 9 2 9 6 6 3 9 9 9 9 7 7 7 7 7 8 9 9 8 9 9 10 9 10 10 10 10 13 13 12 13 12 14 17 13 11 12 11 11
5 5 4 3 8 5 5 7 10 12 12 8 8 9 10 9 7 6 6 7 7 7 8 8 9 8 9 9 10 10 9 10 10 11 10 9 11 11 13 14 16 26 22 25
Wind_Direction
179 187 208 198 220 230 148 223 244 335 281 327 277 275 278 269 277 282 278 274 282 285 282 274 269 254 167 164 167 170 161 167 155 155 176 185 199 199 206 204 206 191 191 211
229 237 208 205 221 209 228 267 272 265 245 195 262 276 271 258 251 240 264 280 284 289 295 290 267 213 195 183 176 171 169 160 166 162 179 159 167 185 187 188 176 166 150 141
221 213 182 195 197 199 203 218 186 231 319 255 279 278 202 261 243 281 292 272 277 278 290 299 292 220 204 194 186 177 166 158 161 170 168 133 127 127 144 167 154 156 140 133
243 201 224 201 217 193 247 184 225 255 129 236 106 287 205 208 253 314 276 287 289 306 315 309 303 243 213 192 162 169 165 159 154 156 177 170 180 170 156 175 163 165 156 147
229 191 200 217 219 177 217 171 192 198 196 183 196 236 100 335 310 290 303 301 317 332 320 324 316 255 214 169 164 157 168 164 154 169 177 174 170 156 145 148 158 160 166 167
236 228 163 192 178 197 122 152 163 92 131 256 177 151 288 188 172 278 304 312 331 329 333 326 331 274 194 167 162 168 173 168 160 176 176 162 151 144 165 174 168 177 167 165
231 229 204 161 164 148 131 101 275 314 187 231 152 176 256 284 297 110 311 300 312 340 339 345 346 335 208 191 186 182 178 169 164 175 185 157 157 161 167 176 184 171 182 181
241 312 173 189 189 188 178 164 169 204 201 235 303 233 240 245 62 10 288 320 339 344 335 343 348 353 219 204 202 189 185 169 162 170 175 161 161 164 172 176 174 189 199 190
319 254 326 59 56 128 162 165 185 131 20 85 225 295 305 20 14 10 354 350 339 323 323 339 350 339 269 220 214 200 187 176 164 164 163 171 176 176 176 169 179 193 202 205
314 286 343 17 93 27 105 99 117 33 184 243 236 265 239 7 342 332 332 333 325 332 335 338 345 334 325 206 202 192 188 187 171 160 165 171 177 169 157 173 194 204 211 208
324 330 311 315 41 209 38 66 65 113 77 243 316 253 134 39 335 308 304 301 313 326 337 332 338 331 315 187 183 175 163 172 185 170 161 166 173 163 152 195 186 200 193 195
316 303 314 321 323 276 77 80 59 124 165 142 195 259 207 25 349 331 282 295 302 319 338 347 344 332 287 183 172 166 158 164 176 180 150 172 169 164 162 178 159 158 171 161
348 351 314 121 357 11 68 62 89 79 75 210 158 266 295 337 324 325 290 292 323 336 347 1 339 337 267 212 188 169 162 167 169 145 157 160 170 169 172 174 156 150 145 126
124 258 232 253 320 258 36 61 119 143 134 220 239 275 287 303 298 302 306 302 314 12 5 1 325 332 336 253 207 192 175 157 160 155 168 156 171 169 172 171 160 151 150 140
309 238 283 251 253 300 263 243 205 198 190 172 267 266 276 282 287 292 297 207 326 15 33 347 315 337 337 340 252 201 179 171 158 159 178 154 154 155 153 161 161 154 147 145
317 276 347 295 279 245 253 256 247 257 274 244 258 266 260 274 283 278 288 229 299 321 326 287 313 321 334 333 325 251 176 174 163 162 169 147 147 148 154 155 154 155 151 139
248 212 189 261 199 275 276 244 228 222 223 223 238 248 270 275 273 273 288 9 13 350 350 329 325 327 331 329 313 304 232 168 165 169 166 157 156 156 153 147 148 128 97 94
225 212 162 264 240 236 248 302 200 225 246 241 257 259 262 257 254 180 69 18 344 324 4 342 339 332 326 314 308 294 291 179 170 163 165 161 165 165 153 138 107 91 86 89
208 185 223 183 214 286 302 274 212 199 269 252 260 259 250 198 168 258 46 44 31 2 357 347 339 332 322 328 311 321 281 180 165 168 163 163 164 149 128 119 113 108 106 89
163 219 190 172 215 231 241 352 142 146 282 346 316 274 82 85 212 153 10 28 20 5 8 350 337 334 326 318 309 337 292 159 171 171 172 160 149 143 136 128 120 103 99 100
210 197 217 219 212 277 250 281 299 136 279 318 312 320 248 184 188 122 42 35 6 13 350 343 342 355 336 329 336 7 26 51 42 72 73 82 118 122 117 111 114 115 109 102
322 276 219 96 134 270 9 353 171 46 307 285 285 272 295 46 70 69 23 358 5 8 355 4 6 8 0 354 357 15 40 16 44 76 80 77 74 101 99 106 106 107 109 104
303 274 296 219 229 331 323 308 283 245 309 287 311 324 152 67 56 46 18 3 3 2 359 4 16 20 17 6 9 26 25 41 36 74 75 80 93 86 91 96 100 102 103 109
290 294 258 271 11 306 304 300 341 115 263 301 23 16 34 56 47 52 39 13 357 358 0 6 21 23 23 15 18 24 31 49 65 63 71 71 75 87 78 84 89 98 107 109
266 304 308 283 275 301 315 328 337 347 303 74 45 41 41 52 44 49 52 29 11 358 358 17 22 26 29 28 34 31 43 59 75 76 73 77 80 78 85 77 80 84 78 98
333 328 322 299 299 305 301 7 48 56 47 47 72 50 45 46 40 43 47 45 29 15 10 26 25 23 30 36 38 39 52 63 74 84 83 85 87 89 92 96 92 84 93 99